Flag for Netherlands Weather past 2 weeks in Dordrecht, Netherlands

50 °F


Feels Like: 44 °F
Forecast: 45 / 55 °F
Wind: 18 mph from Southwest

Location: Rotterdam Zestienhoven Airport

Current Time: Nov 29, 2015 at 6:46:22 AM

Latest Report: Nov 29, 2015 at 5:55 AM

Visibility: N/A

Pressure: 29.68 "Hg

Humidity: 82%

Dew point: 45 °F

Location of DordrechtLocation

Historic Weather in Dordrecht — Graph


Dordrecht temperature yesterday

Maximum temperature yesterday: 48 °F (at 1:25 PM)
Minimum temperature yesterday: 41 °F (at 12:25 AM)
Average temperature yesterday: 44 °F

Past Weeks' High & Low Weather Summary

High59 °F (Nov 15, 9:55 AM)100% (Nov 14, 6:55 PM)30.24 "Hg (Nov 14, 6:55 PM)
Low28 °F (Nov 23, 2:25 AM)62% (Nov 14, 7:25 AM)29.27 "Hg (Nov 21, 9:25 AM)
Average47 °F85%29.83 "Hg
* Reported Nov 14 5:55 AM — Nov 29 5:25 AM, Dordrecht, Weather by CustomWeather, © 2015

Note: Actual official high and low records may vary slightly from our data, if they occured in-between our weather recording intervals... More about our weather records


Dordrecht weather history for previous 24 hours

Time TempWeatherWind HumidityBarometerVisibility
5:25 AM
Sun, Nov 29
52 °FClear.17 mph77%29.71 "HgN/A
4:55 AM52 °FClear.18 mph77%29.68 "HgN/A
4:25 AM50 °FPassing clouds.21 mph82%29.68 "HgN/A
3:55 AM52 °FPassing clouds.18 mph77%29.68 "HgN/A
3:25 AM50 °FPartly cloudy.17 mph82%29.68 "HgN/A
2:55 AM48 °FPartly cloudy.13 mph94%29.68 "HgN/A
2:25 AM48 °FPartly cloudy.18 mph94%29.68 "HgN/A
1:55 AM48 °FPassing clouds.20 mph94%29.68 "HgN/A
1:25 AM46 °FPassing clouds.24 mph93%29.68 "HgN/A
12:55 AM46 °FPartly cloudy.25 mph93%29.68 "HgN/A
12:25 AM46 °FMostly cloudy.26 mph93%29.68 "HgN/A
11:55 PM
Sat, Nov 28
46 °FPartly cloudy.26 mph87%29.68 "HgN/A
10:55 PM46 °FPassing clouds.26 mph87%29.68 "HgN/A
9:55 PM45 °FLight rain. Partly cloudy.25 mph93%29.68 "Hg6 mi
9:25 PM45 °FLight rain. Mostly cloudy.26 mph87%29.71 "HgN/A
8:55 PM45 °FLight rain. Mostly cloudy.26 mph87%29.71 "HgN/A
8:25 PM45 °FLight rain. Mostly cloudy.25 mph87%29.74 "HgN/A
7:55 PM45 °FPartly cloudy.25 mph87%29.77 "HgN/A
7:25 PM45 °FPartly cloudy.24 mph87%29.77 "HgN/A
6:55 PM45 °FLight rain. Overcast.22 mph93%29.80 "HgN/A
6:25 PM43 °FLight rain. Overcast.17 mph93%29.80 "HgN/A
5:55 PM43 °FSprinkles. Passing clouds.17 mph93%29.83 "Hg6 mi
5:25 PM45 °FLight rain. Passing clouds.21 mph87%29.86 "HgN/A
4:55 PM45 °FSprinkles. Partly cloudy.20 mph81%29.86 "HgN/A
4:25 PM45 °FLight rain. Broken clouds.20 mph81%29.86 "HgN/A
3:55 PM46 °FBroken clouds.20 mph71%29.89 "HgN/A
3:25 PM46 °FBroken clouds.21 mph71%29.89 "HgN/A
2:55 PM46 °FBroken clouds.16 mph71%29.89 "HgN/A
2:25 PM46 °FPartly sunny.18 mph66%29.89 "HgN/A
1:55 PM46 °FPassing clouds.16 mph71%29.89 "HgN/A
1:25 PM48 °FScattered clouds.17 mph66%29.89 "HgN/A
12:55 PM46 °FBroken clouds.14 mph66%29.92 "HgN/A
12:25 PM46 °FScattered clouds.18 mph66%29.92 "HgN/A
11:55 AM45 °FScattered clouds.16 mph71%29.89 "HgN/A
11:25 AM45 °FScattered clouds.14 mph71%29.89 "HgN/A
10:55 AM45 °FPassing clouds.13 mph71%29.89 "HgN/A
10:25 AM45 °FScattered clouds.12 mph71%29.89 "HgN/A
9:55 AM45 °FPassing clouds.13 mph71%29.89 "HgN/A
9:25 AM43 °FClear.12 mph76%29.89 "HgN/A
8:55 AM43 °FPassing clouds.14 mph76%29.86 "HgN/A
8:25 AM41 °FScattered clouds.14 mph81%29.86 "HgN/A
7:55 AM43 °FPassing clouds.16 mph76%29.83 "HgN/A
7:25 AM43 °FPassing clouds.16 mph81%29.83 "HgN/A
6:55 AM43 °FPassing clouds.18 mph81%29.80 "HgN/A
6:25 AM43 °FPassing clouds.17 mph76%29.77 "HgN/A
Weather by CustomWeather, © 2015

See weather overviewHow to use our weather pages